Weather History for Greenville, ME

Change the Weather History Date:

Monday, January 21, 2013

  Actual Average (KMLT) Record (KMLT)
Temperature  
Mean Temperature 4 °F 13 °F  
Max Temperature 10 °F 23 °F 48 °F (2006)
Min Temperature -2 °F 3 °F -35 °F (1994)
Degree Days  
Heating Degree Days 61 52  
Month to date heating degree days 1066  
Since 1 July heating degree days 4231  
Cooling Degree Days 0 0  
Month to date cooling degree days 0  
Year to date cooling degree days 0  
Moisture  
Dew Point -10 °F    
Average Humidity 54    
Maximum Humidity 63    
Minimum Humidity 40    
Precipitation  
Precipitation 0.00 in 0.08 in 1.20 in (1903)
Month to date precipitation 2.09  
Year to date precipitation 2.09  
Sea Level Pressure  
Sea Level Pressure 29.88 in    
Wind  
Wind Speed 4 mph (North)    
Max Wind Speed 10 mph    
Max Gust Speed 18 mph    
T = Trace of Precipitation, MM = Missing Value Source: NWS Daily Summary

Daily Weather History Graph

Daily Weather History Graph

Search for Another Location

Airport:

Trip Planner

Search our weather history database for the weather conditions in past years. The results will help you decide how hot, cold, wet, or windy it might be!

Date:

Astronomy

Jan. 21, 2013 Rise Set
Actual Time 7:10 AM EST 4:29 PM EST
Civil Twilight 6:37 AM EST 5:02 PM EST
Nautical Twilight 6:01 AM EST 5:38 PM EST
Astronomical Twilight 5:26 AM EST 6:13 PM EST
Moon 12:06 PM EST (1/21) 2:35 AM EST (1/21)
Length of Visible Light 10h 24m
Length of Day
9h 19m
Waxing Gibbous, 75% of the Moon is Illuminated
Jan 21
Waxing Gibbous
Jan 26
Full
Feb 3
Last Quarter
Feb 10
New
Feb 17
First Quarter

Hourly Weather History & Observations

Time (EST) Temp. Windchill Dew Point Humidity Pressure Visibility Wind Dir Wind Speed Gust Speed Precip Events Conditions
12:56 AM 5.0 °F -2.1 °F -5.1 °F 63% 29.74 in - Variable 3.5 mph - N/A   Unknown
1:56 AM 3.9 °F -9.4 °F -7.1 °F 60% 29.77 in - WNW 8.1 mph 18.4 mph N/A   Unknown
2:56 AM 1.9 °F -10.6 °F -8.0 °F 63% 29.78 in - Variable 6.9 mph - N/A   Unknown
3:56 AM 1.0 °F -10.3 °F -9.0 °F 63% 29.80 in - Variable 5.8 mph - N/A   Unknown
4:56 AM -0.0 °F - -9.9 °F 63% 29.82 in - Calm Calm - N/A   Unknown
5:56 AM -0.9 °F -14.1 °F -11.0 °F 62% 29.84 in - NW 6.9 mph - N/A   Unknown
6:56 AM -2.0 °F - -11.9 °F 63% 29.86 in - Calm Calm - N/A   Unknown
7:56 AM -2.0 °F -12.2 °F -11.9 °F 63% 29.90 in - Variable 4.6 mph - N/A   Unknown
8:56 AM -0.0 °F -9.9 °F -11.9 °F 57% 29.92 in - Variable 4.6 mph - N/A   Unknown
9:56 AM 1.9 °F -13.8 °F -11.0 °F 55% 29.94 in - NW 10.4 mph - N/A   Unknown
10:56 AM 5.0 °F -4.1 °F -11.0 °F 48% 29.94 in - Variable 4.6 mph - N/A   Unknown
11:56 AM 8.1 °F 1.4 °F -9.9 °F 44% 29.91 in - Variable 3.5 mph - N/A   Unknown
12:56 PM 10.0 °F 1.8 °F -9.9 °F 40% 29.91 in - Variable 4.6 mph - N/A   Unknown
1:56 PM 10.0 °F - -9.9 °F 40% 29.90 in - Calm Calm - N/A   Unknown
2:56 PM 10.0 °F - -9.0 °F 42% 29.91 in - Calm Calm - N/A   Unknown
3:56 PM 8.1 °F -2.0 °F -9.0 °F 46% 29.91 in - North 5.8 mph - N/A   Unknown
4:56 PM 6.1 °F - -8.0 °F 53% 29.92 in - Calm Calm - N/A   Unknown
5:56 PM 5.0 °F - -9.9 °F 50% 29.92 in - Calm Calm - N/A   Unknown
6:56 PM 5.0 °F - -9.9 °F 50% 29.93 in - Calm Calm - N/A   Unknown
7:56 PM 3.9 °F - -9.0 °F 55% 29.94 in - Calm Calm - N/A   Unknown
8:56 PM 5.0 °F -4.1 °F -9.0 °F 52% 29.94 in - North 4.6 mph - N/A   Unknown
9:56 PM 3.9 °F -6.9 °F -8.0 °F 58% 29.92 in - NE 5.8 mph - N/A   Unknown
10:56 PM 3.0 °F -4.4 °F -9.0 °F 57% 29.90 in - North 3.5 mph - N/A   Unknown
11:56 PM 1.0 °F -8.7 °F -9.9 °F 60% 29.86 in - NNE 4.6 mph - N/A   Unknown